QPF
0.00 0.00 0.00 0.00 0.00 0.00 0.00 0.00 0.00 0.00 0.00 0.00 0.00 0.00 0.00 0.00 0.00 0.00 0.00 0.00 0.00 0.00 0.00 0.00 0.00 0.00 0.00 0.00 0.00 0.00 0.00 0.00 0.00 0.00 0.00 0.00 0.00 0.00 0.00 0.00 0.00 0.00 0.00 0.00 0.00
0.00 0.00 0.00 0.00 0.00 0.00 0.00 0.00 0.00 0.00 0.00 0.00 0.00 0.00 0.00 0.00 0.00 0.00 0.00 0.00 0.00 0.00 0.00 0.00 0.00 0.00 0.00 0.00 0.00 0.00 0.00 0.00 0.00 0.00 0.00 0.00 0.00 0.00 0.00 0.00 0.00 0.00 0.00 0.00 0.00
0.00 0.00 0.00 0.00 0.00 0.00 0.00 0.00 0.00 0.00 0.00 0.00 0.00 0.00 0.00 0.00 0.00 0.00 0.00 0.00 0.00 0.00 0.00 0.00 0.00 0.00 0.00 0.00 0.00 0.00 0.00 0.00 0.00 0.00 0.00 0.00 0.00 0.00 0.00 0.00 0.00 0.00 0.00 0.00 0.00
0.00 0.00 0.00 0.00 0.00 0.00 0.00 0.00 0.00 0.00 0.00 0.00 0.00 0.00 0.00 0.00 0.00 0.00 0.00 0.00 0.00 0.00 0.00 0.00 0.00 0.00 0.00 0.00 0.00 0.00 0.00 0.00 0.00 0.00 0.00 0.00 0.00 0.00 0.00 0.00 0.00 0.00 0.00 0.00 0.00
0.00 0.00 0.00 0.00 0.00 0.00 0.00 0.00 0.00 0.00 0.00 0.00 0.00 0.00 0.00 0.00 0.00 0.00 0.00 0.00 0.00 0.00 0.00 0.00 0.00 0.00 0.00 0.00 0.00 0.00 0.00 0.00 0.00 0.00 0.00 0.00 0.00 0.00 0.00 0.00 0.00 0.00 0.00 0.00 0.00
0.00 0.00 0.00 0.00 0.00 0.00 0.00 0.00 0.00 0.00 0.00 0.00 0.00 0.00 0.00 0.00 0.00 0.00 0.00 0.00 0.00 0.00 0.00 0.00 0.00 0.00 0.00 0.00 0.00 0.00 0.00 0.00 0.00 0.00 0.00 0.00 0.00 0.00 0.00 0.00 0.00 0.00 0.00 0.00 0.00
0.00 0.00 0.00 0.00 0.00 0.00 0.00 0.00 0.00 0.00 0.00 0.00 0.00 0.00 0.00 0.00 0.00 0.00 0.00 0.00 0.00 0.00 0.00 0.00 0.00 0.00 0.00 0.00 0.00 0.00 0.00 0.00 0.00 0.00 0.00 0.00 0.00 0.00 0.00 0.00 0.00 0.00 0.00 0.00 0.00
0.00 0.00 0.00 0.00 0.00 0.00 0.00 0.00 0.00 0.00 0.00 0.00 0.00 0.00 0.00 0.00 0.00 0.00 0.00 0.00 0.00 0.00 0.00 0.00 0.00 0.00 0.00 0.00 0.00 0.00 0.00 0.01 0.00 0.00 0.00 0.00 0.00 0.00 0.00 0.00 0.00 0.00 0.00 0.00 0.00
0.00 0.00 0.00 0.00 0.00 0.00 0.00 0.00 0.00 0.00 0.00 0.00 0.00 0.00 0.00 0.00 0.00 0.00 0.00 0.00 0.00 0.00 0.00 0.00 0.00 0.00 0.00 0.00 0.00 0.00 0.01 0.00 0.00 0.00 0.00 0.00 0.00 0.00 0.00 0.00 0.00 0.00 0.00 0.00 0.00
0.00 0.00 0.00 0.00 0.00 0.00 0.00 0.00 0.00 0.00 0.00 0.00 0.00 0.00 0.00 0.00 0.00 0.00 0.00 0.00 0.00 0.00 0.00 0.00 0.00 0.00 0.00 0.00 0.00 0.00 0.00 0.00 0.01 0.00 0.00 0.00 0.00 0.00 0.00 0.00 0.00 0.00 0.00 0.00 0.00
0.00 0.00 0.00 0.00 0.00 0.00 0.00 0.00 0.00 0.00 0.00 0.00 0.00 0.00 0.00 0.00 0.00 0.00 0.00 0.00 0.00 0.00 0.00 0.00 0.00 0.00 0.00 0.00 0.00 0.00 0.00 0.00 0.00 0.00 0.00 0.00 0.00 0.00 0.00 0.00 0.00 0.00 0.00 0.00 0.00
0.00 0.00 0.00 0.00 0.00 0.00 0.00 0.00 0.00 0.00 0.00 0.00 0.00 0.00 0.00 0.00 0.00 0.00 0.00 0.00 0.00 0.00 0.00 0.00 0.00 0.00 0.00 0.00 0.00 0.00 0.00 0.00 0.00 0.00 0.00 0.00 0.00 0.00 0.00 0.00 0.00 0.00 0.00 0.00 0.00
0.00 0.00 0.00 0.00 0.00 0.00 0.00 0.00 0.00 0.00 0.00 0.00 0.00 0.00 0.00 0.00 0.00 0.00 0.00 0.00 0.00 0.00 0.00 0.00 0.00 0.00 0.00 0.00 0.00 0.00 0.00 0.00 0.00 0.00 0.00 0.00 0.00 0.00 0.00 0.00 0.00 0.00 0.00 0.00 0.00
0.00 0.00 0.00 0.00 0.00 0.00 0.00 0.00 0.00 0.00 0.00 0.00 0.00 0.00 0.00 0.00 0.00 0.00 0.00 0.00 0.00 0.00 0.00 0.00 0.00 0.00 0.00 0.00 0.00 0.00 0.00 0.00 0.00 0.00 0.00 0.00 0.00 0.00 0.00 0.00 0.01 0.01 0.00 0.00 0.00
0.00 0.00 0.00 0.00 0.00 0.00 0.00 0.00 0.00 0.00 0.00 0.00 0.00 0.00 0.00 0.00 0.00 0.00 0.00 0.00 0.00 0.00 0.00 0.00 0.00 0.00 0.00 0.00 0.00 0.00 0.00 0.00 0.00 0.00 0.00 0.00 0.00 0.00 0.00 0.00 0.00 0.00 0.02 0.00 0.00
0.00 0.01 0.00 0.00 0.00 0.00 0.00 0.00 0.00 0.00 0.00 0.00 0.00 0.00 0.00 0.00 0.00 0.00 0.00 0.00 0.00 0.00 0.00 0.00 0.00 0.00 0.00 0.00 0.00 0.00 0.00 0.00 0.00 0.00 0.00 0.00 0.00 0.00 0.00 0.00 0.00 0.00 0.00 0.01 0.00
0.00 0.00 0.00 0.00 0.00 0.00 0.00 0.00 0.00 0.00 0.00 0.00 0.00 0.00 0.00 0.00 0.00 0.00 0.00 0.00 0.00 0.00 0.00 0.00 0.00 0.00 0.00 0.00 0.00 0.00 0.00 0.00 0.00 0.00 0.00 0.00 0.00 0.00 0.00 0.00 0.00 0.00 0.00 0.00 0.00
0.00 0.00 0.00 0.00 0.00 0.00 0.00 0.00 0.00 0.00 0.00 0.00 0.00 0.00 0.00 0.00 0.00 0.00 0.00 0.00 0.00 0.00 0.00 0.00 0.00 0.00 0.00 0.00 0.00 0.00 0.00 0.00 0.00 0.00 0.00 0.00 0.00 0.00 0.00 0.00 0.00 0.00 0.00 0.00 0.00
0.00 0.00 0.00 0.00 0.00 0.00 0.00 0.00 0.00 0.00 0.00 0.00 0.00 0.00 0.00 0.00 0.00 0.00 0.00 0.00 0.00 0.00 0.00 0.00 0.00 0.00 0.00 0.00 0.00 0.00 0.00 0.00 0.00 0.00 0.00 0.00 0.00 0.00 0.00 0.00 0.00 0.00 0.00 0.00 0.00
0.00 0.00 0.00 0.00 0.00 0.00 0.00 0.00 0.00 0.00 0.00 0.00 0.00 0.00 0.00 0.00 0.00 0.00 0.00 0.00 0.00 0.00 0.00 0.00 0.00 0.00 0.00 0.00 0.00 0.00 0.00 0.00 0.00 0.00 0.00 0.00 0.00 0.00 0.00 0.00 0.00 0.00 0.01 0.01 0.01
0.00 0.00 0.00 0.00 0.00 0.00 0.00 0.00 0.00 0.00 0.00 0.00 0.00 0.00 0.00 0.00 0.00 0.00 0.00 0.00 0.00 0.00 0.00 0.00 0.00 0.00 0.00 0.00 0.00 0.00 0.00 0.00 0.00 0.00 0.00 0.00 0.00 0.00 0.00 0.00 0.00 0.01 0.02 0.01 0.02
0.00 0.00 0.00 0.00 0.00 0.00 0.00 0.00 0.00 0.00 0.00 0.00 0.00 0.00 0.00 0.00 0.00 0.00 0.00 0.00 0.00 0.00 0.00 0.00 0.00 0.00 0.00 0.00 0.00 0.00 0.00 0.00 0.00 0.00 0.00 0.00 0.00 0.00 0.00 0.00 0.01 0.02 0.03 0.03 0.05
0.00 0.00 0.00 0.00 0.00 0.00 0.00 0.00 0.00 0.00 0.00 0.00 0.00 0.00 0.00 0.00 0.00 0.00 0.00 0.00 0.00 0.00 0.00 0.00 0.00 0.00 0.00 0.00 0.00 0.00 0.00 0.00 0.00 0.00 0.00 0.00 0.00 0.00 0.00 0.00 0.00 0.04 0.05 0.08 0.11
0.00 0.00 0.00 0.00 0.00 0.00 0.00 0.00 0.00 0.00 0.00 0.00 0.00 0.00 0.00 0.00 0.00 0.00 0.00 0.00 0.00 0.00 0.00 0.00 0.00 0.00 0.00 0.00 0.00 0.00 0.00 0.00 0.00 0.00 0.00 0.00 0.00 0.00 0.00 0.00 0.00 0.02 0.03 0.04 0.05
0.00 0.00 0.00 0.00 0.00 0.00 0.00 0.00 0.00 0.00 0.00 0.00 0.00 0.00 0.00 0.00 0.00 0.00 0.00 0.00 0.00 0.00 0.00 0.00 0.00 0.00 0.00 0.00 0.00 0.00 0.00 0.00 0.00 0.00 0.00 0.00 0.00 0.00 0.00 0.00 0.00 0.00 0.00 0.00 0.00
0.00 0.00 0.00 0.00 0.00 0.00 0.00 0.00 0.00 0.00 0.00 0.00 0.00 0.00 0.00 0.00 0.00 0.00 0.00 0.00 0.00 0.00 0.00 0.00 0.00 0.00 0.00 0.00 0.00 0.00 0.00 0.00 0.00 0.00 0.00 0.00 0.00 0.00 0.00 0.00 0.00 0.00 0.00 0.00 0.00
0.00 0.00 0.00 0.00 0.00 0.00 0.00 0.00 0.00 0.00 0.00 0.00 0.00 0.00 0.00 0.00 0.00 0.00 0.00 0.00 0.00 0.00 0.00 0.00 0.00 0.00 0.00 0.00 0.00 0.00 0.00 0.00 0.00 0.00 0.00 0.00 0.00 0.00 0.00 0.00 0.00 0.00 0.00 0.00 0.00
MSLP
1016.67 1016.21 1015.90 1015.57 1015.27 1014.94 1014.55 1014.25 1013.87 1013.41 1013.17 1012.67 1012.28 1011.85 1011.51 1011.47 1011.02 1010.61 1008.57 1007.98 1008.50 1009.00 1009.16 1008.85 1008.76 1008.86 1008.65 1008.13 1008.01 1007.64 1005.64 1005.54 1005.83 1005.96 1007.39 1008.33 1008.70 1009.61 1009.96 1010.45 1010.86 1011.49 1012.04 1013.36 1014.74
1016.70 1016.26 1015.87 1015.51 1015.19 1014.84 1014.40 1014.20 1013.85 1013.37 1013.08 1012.57 1012.20 1011.71 1011.43 1011.29 1009.88 1008.40 1008.40 1008.37 1008.68 1009.18 1008.84 1008.39 1008.34 1008.66 1007.91 1007.72 1007.50 1006.78 1005.52 1005.75 1006.23 1006.50 1007.15 1008.03 1008.49 1009.41 1009.87 1010.52 1011.26 1011.79 1013.06 1014.18 1014.88
1016.69 1016.29 1015.83 1015.41 1015.10 1014.69 1014.28 1014.04 1013.72 1013.34 1012.98 1012.42 1012.04 1011.61 1011.30 1010.93 1008.81 1007.36 1008.33 1008.62 1008.79 1009.02 1008.39 1008.22 1008.13 1008.20 1007.49 1007.42 1007.30 1006.64 1005.63 1006.28 1006.48 1006.59 1007.18 1007.91 1008.56 1009.21 1009.67 1010.16 1011.08 1011.91 1013.19 1014.29 1014.85
1016.71 1016.18 1015.77 1015.30 1014.94 1014.57 1014.14 1013.84 1013.49 1013.15 1012.86 1012.32 1011.85 1011.43 1011.15 1009.88 1007.43 1007.44 1008.37 1008.64 1008.97 1008.37 1008.25 1008.14 1007.68 1007.39 1006.88 1006.44 1006.91 1006.02 1006.34 1006.16 1006.57 1006.98 1007.46 1008.08 1008.91 1009.24 1009.77 1009.98 1011.22 1012.47 1013.48 1014.23 1014.67
1016.61 1016.00 1015.54 1015.09 1014.73 1014.42 1013.97 1013.66 1013.26 1012.90 1012.68 1012.19 1011.71 1011.33 1010.69 1008.47 1006.93 1007.90 1008.42 1008.71 1008.81 1008.41 1007.62 1007.16 1006.57 1006.39 1005.90 1006.35 1006.31 1006.09 1006.08 1006.30 1006.77 1007.46 1007.82 1008.67 1009.19 1009.73 1010.49 1010.66 1011.53 1012.75 1013.67 1014.09 1014.43
1016.43 1015.90 1015.39 1014.91 1014.46 1014.15 1013.75 1013.37 1013.03 1012.61 1012.33 1011.96 1011.57 1011.33 1009.67 1007.03 1007.07 1007.44 1007.72 1008.33 1008.22 1008.24 1007.50 1007.19 1006.64 1006.35 1005.94 1006.29 1006.51 1006.23 1006.34 1006.77 1007.32 1007.78 1008.37 1008.80 1009.45 1009.60 1010.94 1010.98 1011.98 1012.93 1013.45 1013.92 1014.39
1016.31 1015.77 1015.25 1014.72 1014.24 1013.82 1013.48 1012.99 1012.69 1012.26 1011.94 1011.68 1011.40 1010.74 1008.41 1007.24 1007.12 1007.28 1007.72 1007.55 1007.68 1007.43 1007.03 1007.12 1007.07 1006.21 1006.09 1005.97 1006.44 1006.04 1006.14 1006.96 1007.54 1008.07 1008.44 1008.78 1009.31 1009.88 1010.91 1011.44 1012.14 1012.73 1013.34 1013.84 1014.32
1016.23 1015.55 1015.09 1014.54 1014.05 1013.52 1013.06 1012.63 1012.13 1011.84 1011.56 1011.38 1011.21 1009.93 1007.31 1007.43 1007.02 1007.45 1007.54 1007.55 1007.68 1007.52 1007.41 1007.21 1007.31 1006.91 1006.08 1006.32 1005.77 1005.34 1005.57 1005.75 1007.41 1007.76 1008.47 1008.32 1008.85 1010.27 1010.94 1011.38 1012.01 1012.58 1013.24 1013.81 1014.26
1016.09 1015.41 1014.88 1014.36 1013.76 1013.27 1012.69 1012.16 1011.58 1011.27 1011.18 1011.14 1010.51 1008.83 1007.13 1007.84 1007.06 1006.82 1007.16 1006.56 1006.87 1007.08 1007.20 1007.30 1006.81 1006.42 1006.40 1005.43 1004.73 1005.15 1004.52 1005.27 1006.71 1007.21 1007.81 1007.96 1008.68 1010.10 1010.81 1011.09 1011.71 1012.47 1013.00 1013.54 1013.99
1016.00 1015.32 1014.76 1014.17 1013.65 1012.94 1012.29 1011.94 1011.45 1011.25 1010.86 1010.18 1009.34 1008.09 1007.46 1006.33 1006.28 1006.59 1007.03 1007.04 1006.39 1006.31 1006.40 1006.58 1005.53 1004.66 1004.54 1004.99 1003.70 1003.95 1004.20 1004.93 1005.25 1006.47 1007.07 1007.53 1008.17 1009.55 1010.28 1010.60 1011.31 1011.95 1012.56 1013.07 1013.51
1015.85 1015.15 1014.61 1014.02 1013.46 1012.80 1011.81 1010.83 1010.81 1009.94 1008.92 1007.21 1006.55 1006.42 1005.96 1006.07 1006.32 1006.18 1006.36 1006.63 1006.38 1005.99 1005.21 1005.39 1004.38 1003.50 1003.44 1003.87 1003.95 1004.43 1004.48 1004.49 1005.10 1005.83 1006.37 1006.83 1007.68 1009.00 1009.77 1010.05 1010.78 1011.47 1012.11 1012.58 1012.93
1015.77 1015.07 1014.38 1013.72 1013.13 1012.51 1011.80 1009.09 1009.34 1009.35 1007.53 1007.06 1006.86 1006.51 1006.16 1005.98 1005.52 1005.59 1006.02 1005.78 1005.72 1005.52 1005.31 1005.13 1003.90 1003.78 1004.12 1004.32 1004.26 1004.07 1003.99 1003.97 1004.84 1005.50 1005.57 1006.23 1007.04 1008.34 1009.36 1009.74 1010.24 1010.86 1011.58 1012.02 1012.45
1015.68 1014.94 1014.26 1013.40 1012.66 1011.90 1010.35 1009.30 1009.36 1009.04 1007.17 1006.30 1005.93 1005.51 1005.37 1005.74 1004.85 1004.91 1005.58 1005.24 1005.18 1005.46 1005.14 1004.24 1003.81 1004.46 1004.32 1003.86 1003.77 1003.50 1003.47 1003.57 1003.71 1005.11 1005.30 1005.59 1006.21 1007.74 1008.82 1009.52 1010.11 1010.56 1011.13 1011.59 1011.88
1015.57 1014.85 1014.25 1013.29 1012.59 1010.87 1009.56 1009.64 1009.42 1009.18 1006.55 1005.45 1005.23 1004.77 1005.27 1005.00 1004.75 1004.71 1005.14 1005.20 1005.19 1005.11 1005.60 1005.34 1004.39 1004.57 1004.11 1003.77 1003.58 1003.11 1004.02 1003.79 1004.05 1004.23 1003.98 1005.02 1005.13 1006.59 1007.85 1009.08 1009.88 1010.42 1010.89 1011.20 1011.60
1015.20 1014.58 1014.16 1014.03 1012.27 1010.07 1010.00 1009.70 1009.34 1008.63 1005.62 1005.36 1004.56 1005.20 1004.41 1004.50 1004.30 1005.12 1005.36 1005.25 1004.76 1004.99 1005.45 1005.36 1004.84 1004.87 1004.18 1003.56 1003.97 1003.98 1004.21 1003.78 1003.85 1003.64 1003.95 1004.67 1004.83 1006.53 1007.73 1008.39 1009.31 1010.00 1011.16 1011.12 1011.39
1014.87 1014.20 1013.75 1012.87 1012.01 1010.38 1010.16 1009.69 1009.15 1007.31 1005.01 1004.74 1004.44 1004.31 1004.33 1004.12 1004.29 1004.87 1005.17 1005.34 1005.07 1005.10 1005.14 1005.09 1005.46 1005.08 1004.71 1004.89 1004.55 1004.52 1004.35 1004.29 1004.21 1003.77 1003.67 1004.24 1005.42 1006.10 1007.35 1008.98 1009.51 1009.54 1010.23 1011.36 1011.57
1014.20 1013.67 1013.33 1011.89 1010.14 1010.53 1010.06 1008.89 1007.28 1005.61 1005.61 1004.72 1004.12 1004.08 1003.60 1003.55 1003.85 1004.27 1004.57 1004.66 1004.42 1004.58 1004.40 1005.00 1005.22 1005.08 1005.05 1004.83 1004.97 1004.38 1003.67 1003.22 1003.32 1003.27 1003.38 1005.06 1006.03 1007.23 1009.31 1010.84 1010.61 1010.25 1009.95 1010.49 1011.41
1013.80 1013.22 1012.68 1011.61 1011.01 1010.66 1009.30 1007.92 1006.25 1005.86 1005.47 1005.42 1004.92 1004.37 1003.45 1003.24 1003.55 1003.98 1003.96 1003.81 1004.27 1004.00 1003.25 1003.75 1004.58 1005.06 1005.15 1004.42 1003.87 1004.05 1003.38 1002.87 1002.47 1002.80 1003.23 1005.51 1005.97 1007.77 1010.24 1011.23 1011.12 1010.84 1010.56 1010.44 1011.38
1013.19 1011.79 1010.87 1010.89 1010.92 1010.48 1008.54 1006.77 1005.59 1005.95 1006.14 1005.54 1004.87 1004.29 1003.66 1003.45 1003.93 1003.76 1003.73 1003.35 1003.57 1004.19 1003.83 1003.46 1003.61 1005.06 1005.12 1004.84 1004.94 1004.48 1004.24 1004.03 1003.60 1004.03 1004.41 1004.67 1006.84 1009.22 1010.54 1011.37 1011.58 1010.93 1010.54 1011.40 1011.96
1012.42 1010.58 1010.42 1010.87 1010.73 1009.65 1007.94 1006.37 1006.28 1006.85 1006.50 1005.93 1004.80 1004.77 1003.53 1003.56 1003.92 1003.64 1003.44 1003.43 1003.64 1004.22 1004.07 1003.51 1003.64 1004.60 1005.58 1005.42 1005.68 1004.91 1004.65 1004.36 1004.02 1003.87 1003.97 1004.47 1006.40 1007.52 1010.13 1011.61 1012.55 1012.93 1013.52 1013.91 1014.22
1011.95 1009.51 1010.26 1010.32 1010.21 1008.57 1007.03 1006.38 1006.85 1007.13 1007.08 1006.34 1005.52 1004.95 1004.43 1003.85 1003.63 1003.16 1003.13 1004.01 1004.02 1004.57 1004.74 1004.00 1003.95 1004.78 1005.65 1004.96 1004.23 1005.39 1004.63 1004.57 1004.24 1004.47 1004.20 1004.58 1005.85 1009.04 1010.89 1012.34 1013.35 1014.48 1015.28 1015.88 1016.88
1011.28 1008.90 1009.89 1009.99 1008.47 1008.13 1007.05 1007.34 1008.37 1007.12 1007.18 1006.81 1006.58 1005.92 1005.11 1004.67 1003.98 1003.50 1003.29 1003.66 1004.64 1004.83 1004.72 1004.60 1003.75 1004.02 1004.72 1005.97 1006.00 1005.34 1004.48 1004.43 1003.97 1004.38 1005.13 1006.12 1007.57 1010.21 1011.61 1013.07 1014.87 1015.95 1017.01 1017.79 1018.41
1011.22 1009.81 1009.52 1009.27 1007.48 1007.34 1007.86 1007.62 1007.69 1007.19 1006.91 1006.66 1006.35 1006.20 1005.84 1005.10 1004.62 1004.21 1004.09 1005.22 1005.43 1005.16 1004.94 1005.03 1004.21 1004.50 1005.51 1006.26 1006.32 1005.53 1005.77 1005.40 1005.15 1005.14 1005.11 1006.21 1007.84 1010.53 1011.94 1013.67 1015.74 1017.17 1018.28 1019.00 1019.37
1011.82 1009.42 1008.99 1008.83 1008.94 1008.24 1007.94 1007.50 1007.39 1007.29 1007.06 1006.71 1006.36 1006.11 1005.78 1005.56 1005.29 1004.75 1004.78 1005.69 1006.02 1005.76 1006.51 1006.08 1004.41 1004.11 1004.21 1004.57 1004.55 1005.92 1006.22 1006.25 1005.87 1005.29 1005.13 1006.03 1008.46 1010.70 1012.05 1013.96 1015.89 1017.18 1018.17 1018.64 1018.98
1012.32 1010.94 1011.07 1008.90 1008.84 1008.80 1008.78 1008.38 1007.65 1007.12 1006.98 1006.87 1006.26 1005.96 1005.50 1005.24 1005.06 1005.00 1004.97 1006.05 1006.44 1006.94 1006.65 1005.73 1005.02 1005.58 1005.83 1006.05 1006.02 1006.48 1006.80 1007.02 1006.77 1006.47 1006.56 1006.78 1007.86 1010.16 1012.07 1013.64 1015.35 1016.61 1017.43 1017.99 1018.61
1013.02 1012.14 1011.39 1010.29 1010.05 1009.33 1009.16 1008.20 1008.05 1007.59 1007.53 1006.58 1006.36 1005.87 1005.49 1005.20 1004.95 1004.46 1005.36 1005.74 1005.76 1006.85 1006.43 1006.35 1006.60 1006.56 1006.89 1007.21 1007.31 1007.58 1008.03 1008.19 1008.14 1008.10 1008.08 1008.18 1008.60 1010.50 1012.56 1014.02 1015.33 1016.22 1016.88 1017.56 1018.29
1014.32 1013.74 1012.61 1010.83 1009.81 1009.28 1008.89 1008.84 1008.33 1007.90 1007.22 1007.12 1006.91 1006.39 1005.63 1005.16 1005.15 1005.57 1005.61 1006.42 1006.55 1006.70 1006.85 1006.78 1006.98 1007.14 1006.85 1008.19 1008.23 1008.37 1008.49 1009.04 1008.89 1009.49 1009.07 1008.86 1009.26 1011.65 1013.16 1014.34 1015.18 1016.02 1016.90 1017.65 1018.42
Thickness
5752 5758 5761 5765 5768 5772 5776 5778 5781 5786 5789 5795 5800 5806 5809 5809 5812 5817 5821 5830 5827 5825 5824 5825 5822 5819 5820 5815 5819 5821 5809 5795 5799 5801 5794 5807 5798 5805 5811 5797 5801 5802 5797 5794 5790
5752 5758 5762 5766 5770 5774 5777 5780 5782 5787 5791 5797 5802 5808 5811 5812 5823 5828 5829 5825 5825 5823 5823 5820 5813 5815 5812 5815 5817 5815 5810 5805 5819 5818 5807 5809 5808 5803 5799 5794 5790 5794 5796 5792 5789
5752 5757 5763 5768 5771 5776 5779 5782 5785 5789 5793 5799 5804 5810 5813 5816 5825 5831 5835 5829 5829 5829 5833 5831 5827 5817 5810 5818 5815 5818 5809 5819 5820 5827 5824 5812 5809 5814 5803 5792 5797 5790 5788 5788 5785
5751 5757 5763 5769 5773 5777 5781 5784 5788 5792 5795 5801 5807 5812 5815 5825 5809 5840 5838 5835 5833 5838 5834 5826 5825 5813 5811 5813 5821 5815 5824 5828 5825 5830 5824 5812 5815 5807 5807 5808 5810 5801 5795 5789 5785
5751 5758 5764 5770 5775 5778 5783 5786 5790 5795 5798 5803 5809 5813 5821 5826 5829 5843 5839 5838 5838 5839 5835 5831 5828 5826 5817 5821 5825 5818 5825 5831 5831 5826 5824 5820 5808 5804 5799 5813 5811 5801 5795 5790 5789
5751 5757 5764 5770 5776 5780 5785 5789 5792 5797 5801 5806 5810 5814 5824 5820 5848 5846 5845 5842 5840 5837 5838 5838 5834 5839 5830 5823 5817 5829 5827 5824 5823 5819 5818 5808 5806 5812 5801 5814 5804 5795 5794 5793 5791
5750 5757 5764 5770 5777 5782 5787 5792 5795 5800 5804 5808 5812 5819 5827 5827 5849 5849 5846 5846 5849 5846 5836 5845 5845 5841 5838 5826 5836 5835 5818 5818 5817 5816 5810 5817 5797 5797 5807 5809 5798 5796 5795 5794 5793
5751 5758 5764 5771 5777 5783 5789 5794 5800 5803 5806 5809 5813 5823 5826 5846 5850 5846 5847 5844 5851 5852 5847 5851 5848 5839 5838 5839 5837 5828 5829 5808 5813 5818 5815 5817 5786 5800 5810 5804 5796 5796 5795 5793 5792
5751 5759 5765 5771 5778 5784 5791 5796 5802 5806 5808 5810 5818 5824 5820 5844 5837 5849 5850 5843 5847 5850 5850 5850 5847 5832 5832 5823 5822 5823 5810 5812 5805 5826 5817 5815 5792 5802 5811 5806 5797 5795 5794 5793 5793
5751 5758 5765 5772 5778 5785 5793 5797 5801 5804 5809 5814 5821 5816 5825 5828 5843 5846 5850 5845 5840 5841 5837 5834 5841 5836 5838 5818 5802 5814 5817 5820 5815 5821 5820 5811 5805 5805 5810 5808 5800 5799 5797 5795 5794
5750 5758 5765 5771 5778 5785 5797 5806 5805 5804 5812 5819 5825 5821 5829 5842 5847 5840 5847 5839 5838 5831 5818 5831 5825 5822 5834 5838 5837 5827 5821 5819 5826 5834 5822 5815 5810 5805 5810 5811 5803 5800 5798 5797 5798
5749 5757 5765 5772 5778 5785 5793 5810 5805 5806 5804 5820 5818 5821 5833 5839 5822 5834 5847 5826 5823 5807 5823 5817 5814 5834 5837 5833 5828 5828 5821 5821 5827 5833 5831 5821 5812 5813 5810 5810 5811 5806 5801 5801 5801
5746 5754 5762 5771 5778 5787 5799 5803 5809 5811 5803 5810 5820 5820 5825 5830 5822 5826 5835 5829 5817 5805 5813 5813 5822 5829 5824 5826 5821 5828 5823 5824 5825 5825 5833 5825 5811 5805 5811 5812 5812 5812 5810 5808 5806
5745 5752 5759 5769 5777 5789 5793 5798 5802 5804 5790 5798 5804 5816 5821 5827 5811 5840 5840 5826 5814 5803 5801 5801 5829 5818 5821 5818 5828 5817 5827 5830 5823 5818 5805 5830 5785 5809 5811 5802 5804 5805 5805 5807 5808
5745 5751 5756 5759 5774 5784 5787 5793 5797 5795 5754 5793 5804 5828 5826 5810 5818 5812 5834 5820 5804 5804 5805 5793 5806 5804 5810 5822 5826 5809 5826 5827 5826 5823 5818 5813 5808 5799 5810 5799 5800 5805 5797 5808 5811
5744 5751 5756 5763 5770 5782 5783 5788 5786 5765 5748 5782 5802 5798 5796 5807 5806 5811 5810 5820 5819 5801 5805 5801 5814 5812 5811 5815 5820 5824 5816 5816 5818 5819 5793 5811 5805 5799 5801 5795 5799 5810 5809 5799 5805
5746 5751 5755 5764 5776 5775 5779 5779 5756 5748 5778 5772 5782 5792 5796 5792 5794 5795 5789 5788 5785 5770 5777 5789 5790 5807 5814 5801 5809 5815 5811 5788 5780 5786 5788 5801 5795 5791 5790 5782 5793 5800 5810 5810 5806
5746 5751 5756 5761 5765 5768 5774 5760 5733 5754 5757 5774 5774 5780 5778 5791 5788 5786 5784 5779 5792 5793 5792 5776 5760 5786 5802 5805 5802 5802 5812 5796 5768 5780 5800 5791 5779 5781 5786 5786 5794 5801 5808 5813 5804
5746 5757 5760 5761 5760 5763 5761 5740 5747 5750 5756 5756 5767 5759 5767 5778 5773 5777 5777 5781 5789 5789 5770 5775 5780 5791 5798 5804 5801 5791 5785 5809 5790 5792 5775 5799 5780 5777 5782 5778 5783 5795 5805 5800 5798
5749 5757 5753 5753 5753 5756 5747 5738 5744 5748 5751 5753 5744 5753 5755 5762 5758 5765 5767 5785 5778 5788 5797 5787 5767 5785 5780 5793 5789 5793 5802 5778 5787 5750 5749 5784 5769 5776 5770 5764 5767 5769 5767 5772 5776
5746 5751 5748 5750 5748 5744 5731 5738 5738 5744 5742 5738 5739 5742 5748 5752 5761 5764 5767 5767 5780 5774 5783 5786 5780 5762 5772 5774 5784 5771 5777 5782 5789 5776 5763 5766 5778 5771 5759 5759 5756 5753 5753 5751 5742
5742 5738 5744 5744 5732 5729 5728 5729 5716 5733 5736 5732 5733 5733 5738 5743 5748 5757 5760 5769 5776 5775 5761 5779 5782 5759 5762 5765 5775 5779 5782 5782 5767 5759 5768 5763 5760 5760 5757 5753 5739 5735 5731 5730 5725
5729 5730 5741 5736 5719 5720 5721 5721 5722 5722 5724 5723 5721 5727 5733 5733 5730 5749 5760 5759 5764 5766 5762 5769 5767 5737 5736 5749 5759 5762 5764 5774 5775 5774 5758 5747 5754 5753 5751 5741 5726 5713 5711 5709 5709
5718 5717 5724 5723 5716 5711 5707 5709 5707 5720 5715 5719 5718 5723 5722 5720 5734 5735 5744 5749 5756 5761 5740 5757 5768 5762 5752 5757 5773 5744 5751 5759 5761 5754 5763 5759 5734 5732 5736 5725 5717 5710 5706 5707 5709
5707 5701 5695 5703 5702 5702 5700 5698 5696 5696 5709 5709 5706 5711 5715 5711 5721 5728 5745 5738 5745 5735 5749 5762 5747 5749 5749 5751 5755 5748 5744 5743 5742 5753 5740 5753 5743 5735 5729 5723 5715 5711 5708 5706 5702
5690 5689 5694 5693 5689 5691 5679 5692 5685 5688 5687 5692 5692 5705 5714 5710 5723 5729 5733 5738 5741 5742 5748 5754 5726 5739 5727 5737 5738 5729 5731 5731 5731 5732 5734 5739 5733 5739 5726 5718 5707 5703 5702 5699 5695
5676 5677 5677 5671 5688 5687 5686 5682 5681 5686 5692 5692 5690 5693 5702 5720 5735 5737 5745 5739 5742 5738 5735 5737 5729 5725 5721 5721 5723 5713 5725 5719 5723 5719 5724 5717 5727 5721 5705 5699 5697 5695 5692 5688 5684